Location: Unspecified
(17.6330°N, 0.0000°E)
Time: 16:59:33
(UTC+00:00)

Courier 1B Rocket - Pass Details

Date: 03 July 2019
Orbit: 920 x 1202 km, 28.2° (Epoch: 16 July)

Event Time Altitude Azimuth Distance (km) Brightness Sun altitude
Exits shadow 03:53:03 - 297° (WNW) 3,640 7.7 -20.9°
Reaches altitude 10° 03:54:53 10° 300° (WNW) 3,028 7.3 -20.5°
Maximum altitude 04:02:08 52° 16° (NNE) 1,325 5.9 -19.1°
Drops below altitude 10° 04:08:53 10° 92° (E) 2,825 8.2 -17.7°
Sets 04:11:34 0° 97° (E) 3,734 8.9 -17.2°
